| time (UTC) | temp C | wind direction | speed KPH | gust KPH | rain 1hr cm | rain 24hr cm | rain mn cm | humidity % | barometer mb |
| 20260506120059 | 26 | 134 | 4.8 | 32.2 | 0.00 | 0.00 | 0.00 | 38 | 1005.1 |
| 20260506114604 | 26 | 142 | 14.5 | 27.4 | 0.00 | 0.00 | 0.00 | 37 | 1005.1 |
| 20260506113053 | 26 | 156 | 12.9 | 27.4 | 0.00 | 0.00 | 0.00 | 39 | 1005.1 |
| 20260506111550 | 25 | 142 | 6.4 | 24.1 | 0.00 | 0.00 | 0.00 | 41 | 1005.0 |
| 20260506110147 | 25 | 107 | 4.8 | 22.5 | 0.00 | 0.00 | 0.00 | 40 | 1005.2 |
| 20260506104547 | 25 | 119 | 12.9 | 27.4 | 0.00 | 0.00 | 0.00 | 40 | 1005.3 |
| 20260506103047 | 25 | 139 | 14.5 | 25.7 | 0.00 | 0.00 | 0.00 | 41 | 1005.4 |
| 20260506101545 | 25 | 117 | 3.2 | 30.6 | 0.00 | 0.00 | 0.00 | 41 | 1005.2 |
| 20260506100045 | 24 | 140 | 14.5 | 29.0 | 0.00 | 0.00 | 0.00 | 40 | 1005.4 |
| 20260506094607 | 23 | 123 | 9.7 | 27.4 | 0.00 | 0.00 | 0.00 | 41 | 1005.4 |
| 20260506093037 | 23 | 153 | 9.7 | 37.0 | 0.00 | 0.00 | 0.00 | 41 | 1005.5 |
| 20260506091534 | 23 | 132 | 11.3 | 27.4 | 0.00 | 0.00 | 0.00 | 43 | 1005.4 |
| 20260506090031 | 23 | 135 | 16.1 | 25.7 | 0.00 | 0.00 | 0.00 | 42 | 1005.3 |
| 20260506084529 | 22 | 139 | 17.7 | 25.7 | 0.00 | 0.00 | 0.00 | 43 | 1005.4 |
| 20260506083028 | 22 | 140 | 16.1 | 24.1 | 0.00 | 0.00 | 0.00 | 44 | 1005.3 |
| 20260506081526 | 22 | 157 | 14.5 | 32.2 | 0.00 | 0.00 | 0.00 | 43 | 1005.4 |
| 20260506073025 | 21 | 139 | 11.3 | 24.1 | 0.00 | 0.00 | 0.00 | 45 | 1005.2 |
| 20260506071529 | 21 | 150 | 14.5 | 33.8 | 0.00 | 0.00 | 0.00 | 45 | 1005.3 |
| 20260506061517 | 21 | 94 | 1.6 | 12.9 | 0.00 | 0.00 | 0.00 | 48 | 1005.1 |
| 20260506043048 | 13 | 144 | 0.0 | 1.6 | 0.00 | 0.00 | 0.00 | 63 | 1005.7 |
| 20260506041647 | 12 | 144 | 0.0 | 1.6 | 0.00 | 0.00 | 0.00 | 67 | 1005.8 |
| 20260506040058 | 12 | 139 | 0.0 | 3.2 | 0.00 | 0.00 | 0.00 | 68 | 1005.6 |
| 20260506034549 | 11 | 204 | 0.0 | 3.2 | 0.00 | 0.00 | 0.00 | 70 | 1005.7 |
| 20260506033044 | 11 | 142 | 0.0 | 1.6 | 0.00 | 0.00 | 0.00 | 70 | 1005.7 |
| 20260506031555 | 11 | 142 | 0.0 | 1.6 | 0.00 | 0.00 | 0.00 | 70 | 1005.8 |
| 20260506030043 | 11 | 142 | 0.0 | 1.6 | 0.00 | 0.00 | 0.00 | 70 | 1005.8 |
| 20260506024542 | 11 | 139 | 0.0 | 3.2 | 0.00 | 0.00 | 0.00 | 71 | 1005.9 |
| 20260506023041 | 11 | 132 | 0.0 | 3.2 | 0.00 | 0.00 | 0.00 | 72 | 1005.9 |
| 20260506021540 | 11 | 133 | 0.0 | 1.6 | 0.00 | 0.00 | 0.00 | 75 | 1005.9 |
| 20260506020040 | 11 | 130 | 0.0 | 1.6 | 0.00 | 0.00 | 0.00 | 77 | 1006.0 |
| 20260506014538 | 11 | 130 | 0.0 | 1.6 | 0.00 | 0.00 | 0.00 | 78 | 1005.9 |
| 20260506013037 | 11 | 130 | 0.0 | 1.6 | 0.00 | 0.00 | 0.00 | 78 | 1005.9 |
| 20260506011538 | 11 | 130 | 0.0 | 1.6 | 0.00 | 0.00 | 0.00 | 78 | 1005.9 |
| 20260506010041 | 11 | 130 | 0.0 | 1.6 | 0.00 | 0.00 | 0.00 | 77 | 1006.1 |
| 20260506004531 | 11 | 130 | 0.0 | 1.6 | 0.00 | 0.00 | 0.00 | 76 | 1006.0 |
| 20260506003029 | 12 | 130 | 0.0 | 1.6 | 0.00 | 0.00 | 0.00 | 74 | 1006.0 |
| 20260506001527 | 12 | 130 | 0.0 | 1.6 | 0.00 | 0.00 | 0.00 | 73 | 1005.9 |
| 20260506000025 | 12 | 130 | 0.0 | 1.6 | 0.00 | 0.00 | 0.00 | 72 | 1006.0 |
| 20260505234523 | 12 | 130 | 0.0 | 0.0 | 0.00 | 0.00 | 0.00 | 69 | 1005.9 |
| 20260505233021 | 12 | 130 | 0.0 | 0.0 | 0.00 | 0.00 | 0.00 | 68 | 1006.0 |
| 20260505231528 | 12 | 130 | 0.0 | 1.6 | 0.00 | 0.00 | 0.00 | 66 | 1006.0 |
| 20260505230026 | 13 | 130 | 0.0 | 0.0 | 0.00 | 0.00 | 0.00 | 68 | 1006.2 |
| 20260505224515 | 13 | 130 | 0.0 | 1.6 | 0.00 | 0.00 | 0.00 | 68 | 1006.1 |
| 20260505223015 | 13 | 130 | 0.0 | 1.6 | 0.00 | 0.00 | 0.00 | 67 | 1006.2 |
| 20260505221509 | 15 | 130 | 0.0 | 1.6 | 0.00 | 0.00 | 0.00 | 65 | 1006.2 |
| 20260505220004 | 15 | 130 | 0.0 | 1.6 | 0.00 | 0.00 | 0.00 | 63 | 1006.2 |
| 20260505214503 | 16 | 128 | 0.0 | 1.6 | 0.00 | 0.00 | 0.00 | 60 | 1006.3 |
| 20260505211503 | 18 | 124 | 0.0 | 1.6 | 0.00 | 0.00 | 0.00 | 52 | 1006.4 |
| 20260505210002 | 18 | 146 | 0.0 | 1.6 | 0.00 | 0.00 | 0.00 | 46 | 1006.4 |
| 20260505204501 | 18 | 144 | 0.0 | 3.2 | 0.00 | 0.00 | 0.00 | 43 | 1006.3 |
| 20260505203101 | 18 | 144 | 0.0 | 1.6 | 0.00 | 0.00 | 0.00 | 43 | 1006.2 |
| 20260505203002 | 19 | 144 | 0.0 | 1.6 | 0.00 | 0.00 | 0.00 | 43 | 1006.2 |
| 20260505201602 | 19 | 144 | 0.0 | 3.2 | 0.00 | 0.00 | 0.00 | 43 | 1006.2 |
| 20260505200103 | 20 | 144 | 0.0 | 3.2 | 0.00 | 0.00 | 0.00 | 39 | 1006.1 |
| 20260505194619 | 20 | 144 | 0.0 | 1.6 | 0.00 | 0.00 | 0.00 | 39 | 1006.1 |
| 20260505193058 | 20 | 144 | 0.0 | 1.6 | 0.00 | 0.00 | 0.00 | 38 | 1006.0 |
| 20260505191558 | 21 | 144 | 0.0 | 3.2 | 0.00 | 0.00 | 0.00 | 37 | 1006.0 |
| 20260505190057 | 21 | 128 | 0.0 | 3.2 | 0.00 | 0.00 | 0.00 | 36 | 1005.9 |
| 20260505184557 | 22 | 119 | 0.0 | 3.2 | 0.00 | 0.00 | 0.00 | 35 | 1005.8 |
| 20260505183056 | 22 | 137 | 0.0 | 3.2 | 0.00 | 0.00 | 0.00 | 34 | 1005.8 |
| 20260505181559 | 22 | 128 | 0.0 | 4.8 | 0.00 | 0.00 | 0.00 | 34 | 1005.7 |
| 20260505180057 | 23 | 126 | 1.6 | 6.4 | 0.00 | 0.00 | 0.00 | 33 | 1005.6 |
| 20260505174557 | 23 | 122 | 1.6 | 6.4 | 0.00 | 0.00 | 0.00 | 33 | 1005.5 |
| 20260505173056 | 24 | 131 | 1.6 | 8.0 | 0.00 | 0.00 | 0.00 | 32 | 1005.5 |
| 20260505171554 | 24 | 64 | 1.6 | 6.4 | 0.00 | 0.00 | 0.00 | 32 | 1005.5 |
| 20260505170054 | 25 | 65 | 0.0 | 4.8 | 0.00 | 0.00 | 0.00 | 31 | 1005.5 |
| 20260505164614 | 25 | 107 | 1.6 | 6.4 | 0.00 | 0.00 | 0.00 | 30 | 1005.4 |
| 20260505163054 | 25 | 157 | 1.6 | 8.0 | 0.00 | 0.00 | 0.00 | 29 | 1005.6 |
| 20260505161553 | 26 | 101 | 1.6 | 14.5 | 0.00 | 0.00 | 0.00 | 28 | 1005.5 |
| 20260505153042 | 27 | 125 | 3.2 | 16.1 | 0.00 | 0.00 | 0.00 | 28 | 1005.9 |
| 20260505124525 | 27 | 136 | 3.2 | 24.1 | 0.00 | 0.00 | 0.00 | 27 | 1007.6 |
| 20260505123023 | 27 | 123 | 3.2 | 22.5 | 0.00 | 0.00 | 0.00 | 27 | 1007.7 |
| 20260505121521 | 27 | 128 | 1.6 | 24.1 | 0.00 | 0.00 | 0.00 | 26 | 1007.9 |